Weather History for KHDN - January, 2013

Change the Weather History Date:

Friday, January 18, 2013

  Actual Average Record
Temperature  
Mean Temperature 10 °F -  
Max Temperature 21 °F 32 °F 49 °F (1959)
Min Temperature 0 °F 10 °F -34 °F (1984)
Degree Days  
Heating Degree Days 54    
Moisture  
Dew Point 4 °F    
Average Humidity 74    
Maximum Humidity 92    
Minimum Humidity 58    
Precipitation  
Precipitation 0.00 in - - ()
Sea Level Pressure  
Sea Level Pressure 30.34 in    
Wind  
Wind Speed 10 mph (SE)    
Max Wind Speed 17 mph    
Max Gust Speed -    
Visibility 10 miles    
Events      
Averages and records for this station are not official NWS values.
T = Trace of Precipitation, MM = Missing Value Source: NWS Daily Summary

Daily Weather History Graph

Daily Weather History Graph

Search for Another Location

Airport or City:

Trip Planner

Search our weather history database for the weather conditions in past years. The results will help you decide how hot, cold, wet, or windy it might be!

Date:

Astronomy

Jan. 18, 2013 Rise Set
Actual Time 7:28 AM MST 5:10 PM MST
Civil Twilight 6:58 AM MST 5:40 PM MST
Nautical Twilight 6:25 AM MST 6:13 PM MST
Astronomical Twilight 5:52 AM MST 6:46 PM MST
Moon 11:06 AM MST (1/18) 12:05 AM MST (1/18)
Length of Visible Light 10h 41m
Length of Day
9h 42m
Waxing Crescent, 48% of the Moon is Illuminated
Jan 18
Waxing Crescent
Jan 18
First Quarter
Jan 26
Full
Feb 3
Last Quarter
Feb 10
New

Hourly Weather History & Observations

Time (MST) Temp. Windchill Dew Point Humidity Pressure Visibility Wind Dir Wind Speed Gust Speed Precip Events Conditions
12:35 AM 6.8 °F -7.8 °F 3.2 °F 85% 30.39 in 10.0 mi South 10.4 mph - N/A   Clear
12:55 AM 6.8 °F -6.9 °F -0.4 °F 72% 30.39 in 10.0 mi SSE 9.2 mph - N/A   Clear
1:15 AM 8.6 °F -7.0 °F 3.2 °F 79% 30.39 in 10.0 mi SE 12.7 mph - N/A   Clear
1:35 AM 8.6 °F -7.7 °F 3.2 °F 79% 30.39 in 10.0 mi SE 13.8 mph - N/A   Clear
1:55 AM 8.6 °F -7.7 °F 3.2 °F 79% 30.39 in 10.0 mi SE 13.8 mph - N/A   Clear
2:15 AM 6.8 °F -10.7 °F -0.4 °F 72% 30.39 in 10.0 mi SSE 15.0 mph - N/A   Clear
2:35 AM 8.6 °F -7.0 °F 1.4 °F 73% 30.39 in 10.0 mi SE 12.7 mph - N/A   Clear
2:55 AM 6.8 °F -10.0 °F 1.4 °F 79% 30.39 in 10.0 mi SE 13.8 mph - N/A   Clear
3:15 AM 6.8 °F -10.7 °F 1.4 °F 79% 30.38 in 10.0 mi SSE 15.0 mph - N/A   Clear
3:35 AM 8.6 °F -8.3 °F 3.2 °F 79% 30.38 in 10.0 mi SSE 15.0 mph - N/A   Clear
4:15 AM 8.6 °F -7.0 °F 3.2 °F 79% 30.37 in 10.0 mi SE 12.7 mph - N/A   Clear
4:35 AM 6.8 °F -11.8 °F 1.4 °F 79% 30.37 in 10.0 mi SE 17.3 mph - N/A   Clear
4:55 AM 6.8 °F -11.3 °F 1.4 °F 79% 30.37 in 10.0 mi SE 16.1 mph - N/A   Clear
5:35 AM 6.8 °F -10.7 °F 1.4 °F 79% 30.36 in 10.0 mi SSE 15.0 mph - N/A   Clear
5:55 AM 6.8 °F -10.0 °F 3.2 °F 85% 30.36 in 10.0 mi SSE 13.8 mph - N/A   Clear
6:15 AM 6.8 °F -8.6 °F 1.4 °F 79% 30.36 in 10.0 mi South 11.5 mph - N/A   Clear
6:35 AM 6.8 °F -7.8 °F 1.4 °F 79% 30.36 in 10.0 mi SSE 10.4 mph - N/A   Clear
6:55 AM 5.0 °F -12.3 °F -0.4 °F 78% 30.36 in 10.0 mi SSE 13.8 mph - N/A   Clear
7:15 AM 5.0 °F -10.0 °F 1.4 °F 85% 30.36 in 10.0 mi SSE 10.4 mph - N/A   Clear
7:35 AM 5.0 °F -10.8 °F -0.4 °F 78% 30.36 in 10.0 mi SE 11.5 mph - N/A   Clear
7:55 AM 6.8 °F -9.3 °F 3.2 °F 85% 30.36 in 10.0 mi SE 12.7 mph - N/A   Clear
8:15 AM 6.8 °F -10.7 °F -0.4 °F 72% 30.37 in 10.0 mi SSE 15.0 mph - N/A   Clear
8:55 AM 8.6 °F -6.3 °F 1.4 °F 73% 30.38 in 10.0 mi South 11.5 mph - N/A   Clear
9:15 AM -0.4 °F - -11.2 °F 60% 30.39 in 10.0 mi Calm Calm - N/A   Clear
9:35 AM 8.6 °F -3.7 °F 3.2 °F 79% 30.40 in 10.0 mi South 8.1 mph - N/A   Clear
9:55 AM 10.4 °F -3.3 °F 6.8 °F 85% 30.39 in 10.0 mi SSE 10.4 mph - N/A   Clear
10:15 AM 14.0 °F 1.2 °F 6.8 °F 73% 30.39 in 10.0 mi SE 10.4 mph - N/A   Clear
10:35 AM 15.8 °F 2.1 °F 6.8 °F 68% 30.39 in 10.0 mi SE 12.7 mph - N/A   Clear
10:55 AM 12.2 °F -3.1 °F 5.0 °F 73% 30.38 in 10.0 mi SE 13.8 mph - N/A   Clear
11:15 AM 14.0 °F 0.5 °F 5.0 °F 67% 30.37 in 10.0 mi SE 11.5 mph - N/A   Clear
11:35 AM 12.2 °F 6.1 °F 5.0 °F 73% 30.36 in 10.0 mi South 3.5 mph - N/A   Clear
11:55 AM 10.4 °F - 3.2 °F 73% 30.35 in 10.0 mi Calm Calm - N/A   Clear
12:15 PM 15.8 °F 6.1 °F 5.0 °F 62% 30.34 in 10.0 mi ESE 6.9 mph - N/A   Clear
12:35 PM 17.6 °F 7.3 °F 8.6 °F 68% 30.32 in 10.0 mi SE 8.1 mph - N/A   Clear
12:55 PM 17.6 °F 8.2 °F 8.6 °F 68% 30.32 in 10.0 mi ESE 6.9 mph - N/A   Clear
1:15 PM 17.6 °F - 8.6 °F 68% 30.32 in 10.0 mi Calm Calm - N/A   Clear
1:35 PM 14.0 °F - 8.6 °F 79% 30.31 in 10.0 mi Calm Calm - N/A   Clear
1:55 PM 15.8 °F - 8.6 °F 73% 30.31 in 10.0 mi Calm Calm - N/A   Clear
2:15 PM 15.8 °F - 6.8 °F 68% 30.31 in 10.0 mi Calm Calm - N/A   Clear
2:55 PM 21.2 °F - 8.6 °F 58% 30.30 in 10.0 mi Calm Calm - N/A   Clear
3:35 PM 19.4 °F - 8.6 °F 63% 30.30 in 10.0 mi Calm Calm - N/A   Clear
3:55 PM 19.4 °F - 8.6 °F 63% 30.30 in 10.0 mi Calm Calm - N/A   Clear
4:15 PM 19.4 °F 14.3 °F 8.6 °F 63% 30.30 in 10.0 mi ESE 3.5 mph - N/A   Clear
4:35 PM 21.2 °F 16.4 °F 8.6 °F 58% 30.30 in 10.0 mi ESE 3.5 mph - N/A   Clear
4:55 PM 17.6 °F 12.3 °F 6.8 °F 63% 30.30 in 10.0 mi SE 3.5 mph - N/A   Clear
5:35 PM 10.4 °F 2.2 °F 5.0 °F 79% 30.30 in 10.0 mi SSW 4.6 mph - N/A   Clear
5:55 PM 10.4 °F - 8.6 °F 92% 30.30 in 10.0 mi Calm Calm - N/A   Clear
6:15 PM 14.0 °F - 5.0 °F 67% 30.30 in 10.0 mi Calm Calm - N/A   Clear
6:35 PM 12.2 °F 0.7 °F 3.2 °F 67% 30.30 in 10.0 mi SE 8.1 mph - N/A   Clear
6:55 PM 12.2 °F 1.7 °F 3.2 °F 67% 30.30 in 10.0 mi South 6.9 mph - N/A   Clear
7:15 PM 15.8 °F - 6.8 °F 68% 30.30 in 10.0 mi Calm Calm - N/A   Clear
7:35 PM 10.4 °F - 6.8 °F 85% 30.30 in 10.0 mi Calm Calm - N/A   Clear
7:55 PM 12.2 °F - 5.0 °F 73% 30.30 in 10.0 mi Calm Calm - N/A   Clear
8:35 PM 12.2 °F -0.2 °F 6.8 °F 79% 30.29 in 10.0 mi SE 9.2 mph - N/A   Clear
8:55 PM 14.0 °F 1.2 °F 6.8 °F 73% 30.29 in 10.0 mi SE 10.4 mph - N/A   Clear
9:15 PM 14.0 °F 2.9 °F 6.8 °F 73% 30.29 in 10.0 mi SE 8.1 mph - N/A   Clear
9:35 PM 10.4 °F 2.2 °F 3.2 °F 73% 30.29 in 10.0 mi SE 4.6 mph - N/A   Clear
9:55 PM 6.8 °F -4.8 °F 1.4 °F 79% 30.29 in 10.0 mi South 6.9 mph - N/A   Clear
10:15 PM 3.2 °F -4.2 °F 1.4 °F 92% 30.29 in 10.0 mi NNW 3.5 mph - N/A   Clear
10:35 PM 8.6 °F - 1.4 °F 73% 30.29 in 10.0 mi Calm Calm - N/A   Clear
10:55 PM 10.4 °F 2.2 °F 5.0 °F 79% 30.28 in 10.0 mi SE 4.6 mph - N/A   Clear
11:15 PM 10.4 °F -5.4 °F 6.8 °F 85% 30.28 in 10.0 mi SE 13.8 mph - N/A   Clear
11:35 PM 10.4 °F -4.1 °F 6.8 °F 85% 30.29 in 10.0 mi ESE 11.5 mph - N/A   Clear
11:55 PM 6.8 °F -2.0 °F -2.2 °F 67% 30.29 in 10.0 mi South 4.6 mph - N/A   Clear